Location: Narvik
(68.4360°N, 17.4370°E)
Time: 11:30:08
(UTC+02:00)

LO-87 - Visible Passes

Search period start: 24 September 2019 00:00
Search period end: 04 October 2019 00:00
Orbit: 475 x 492 km, 97.4° (Epoch: 24 September)

Date Brightness Start Highest point End Pass type
(mag) Time Alt. Az. Time Alt. Az. Time Alt. Az.
24 Sep ? 00:58:07 16° W 00:58:13 16° W 01:00:36 10° NW visible
24 Sep ? 19:51:57 10° NE 19:53:43 13° NNE 19:55:30 10° N visible
24 Sep ? 21:24:37 19° E 21:26:14 27° NE 21:29:22 10° NNW visible
24 Sep ? 22:58:58 70° SSE 22:59:22 90° NNW 23:03:02 10° NNW visible
25 Sep ? 00:33:18 23° W 00:33:18 23° W 00:36:14 10° NW visible
25 Sep ? 20:59:48 15° E 21:01:45 22° NE 21:04:36 10° N visible
25 Sep ? 22:34:09 54° ESE 22:34:42 63° ENE 22:38:20 10° NNW visible
26 Sep ? 00:08:30 32° W 00:08:30 32° W 00:11:43 10° NNW visible
26 Sep ? 20:35:00 11° ENE 20:37:19 18° NE 20:39:49 10° N visible
26 Sep ? 22:09:21 38° E 22:10:05 45° ENE 22:13:36 10° NNW visible
26 Sep ? 23:43:41 46° W 23:43:41 46° W 23:47:07 10° NNW visible
27 Sep ? 01:18:02 13° WNW 01:18:02 13° WNW 01:19:35 10° NW visible
27 Sep ? 20:10:48 10° ENE 20:12:55 15° NNE 20:15:02 10° N visible
27 Sep ? 21:44:32 28° E 21:45:32 33° NE 21:48:51 10° NNW visible
27 Sep ? 23:18:53 68° W 23:18:53 68° W 23:22:28 10° NNW visible
28 Sep ? 00:53:13 17° WNW 00:53:13 17° WNW 00:55:27 10° NW visible
28 Sep ? 19:46:50 10° NE 19:48:32 13° NNE 19:50:14 10° N visible
28 Sep ? 21:19:43 21° ENE 21:21:01 26° NE 21:24:06 10° NNW visible
28 Sep ? 22:54:04 83° E 22:54:06 84° ENE 22:57:47 10° NNW visible
29 Sep ? 00:28:25 24° W 00:28:25 24° W 00:31:02 10° NW visible
29 Sep ? 19:22:56 10° NE 19:24:10 11° NNE 19:25:26 10° N visible
29 Sep ? 20:54:54 16° ENE 20:56:33 21° NE 20:59:19 10° N visible
29 Sep ? 22:29:15 57° ENE 22:29:27 58° ENE 22:33:04 10° NNW visible
30 Sep ? 00:03:36 33° WNW 00:03:36 33° WNW 00:06:30 10° NNW visible
30 Sep ? 20:30:05 12° ENE 20:32:06 17° NNE 20:34:32 10° N visible
30 Sep ? 22:04:26 40° ENE 22:04:51 42° NE 22:08:20 10° NNW visible
30 Sep ? 23:38:47 46° WNW 23:38:47 46° WNW 23:41:52 10° NNW visible
01 Oct ? 01:13:08 13° WNW 01:13:08 13° WNW 01:14:30 10° NW visible
01 Oct ? 20:05:40 10° ENE 20:07:42 14° NNE 20:09:44 10° N visible
01 Oct ? 21:39:37 29° ENE 21:40:17 31° NE 21:43:34 10° NNW visible
01 Oct ? 23:13:58 64° NW 23:13:58 64° NW 23:17:13 10° NNW visible
02 Oct ? 00:48:18 18° WNW 00:48:18 18° WNW 00:50:15 10° NW visible
02 Oct ? 19:41:42 10° NE 19:43:19 13° NNE 19:44:56 10° N visible
02 Oct ? 21:14:48 22° ENE 21:15:46 25° NE 21:18:48 10° NNW visible
02 Oct ? 22:49:09 70° NNE 22:49:09 70° NNE 22:52:30 10° NNW visible
03 Oct ? 00:23:29 24° WNW 00:23:29 24° WNW 00:25:48 10° NNW visible
03 Oct ? 19:17:49 10° NE 19:18:58 11° NNE 19:20:07 10° N visible
03 Oct ? 20:49:58 16° ENE 20:51:18 20° NE 20:54:01 10° N visible
03 Oct ? 22:24:19 54° NE 22:24:19 54° NE 22:27:46 10° NNW visible
